GFSCGP_700_spd_336.txt.gz
Wind_Speed
45 47 49 55 60 58 55 35 44 44 36 34 41 49 41 35 33 35 33 33 34 37 36 37 37 40 42 38 37 37 36 35 36 36 35 33 32 31 30 30 31 32 32 32
46 50 55 60 55 55 54 51 48 38 36 32 43 53 48 45 47 45 38 37 35 27 31 36 37 36 36 35 36 35 33 34 35 35 34 34 33 32 33 34 32 32 32 33
47 57 54 55 50 48 55 47 53 46 25 30 41 50 47 47 46 45 43 41 41 39 37 36 37 35 33 34 33 33 34 34 34 34 35 35 36 36 35 32 32 32 34 35
39 51 48 55 57 48 48 54 55 43 31 34 30 17 38 45 48 47 49 47 45 41 36 36 38 38 35 34 34 36 36 36 36 35 36 36 35 35 33 33 35 37 36 33
28 26 38 50 52 51 51 47 44 38 40 38 30 21 36 35 43 51 45 51 48 45 46 45 44 42 39 38 40 41 41 39 37 38 38 37 36 36 35 37 38 36 33 34
51 52 30 40 53 45 44 37 36 39 35 22 44 34 44 37 48 44 46 48 45 41 35 37 46 49 49 46 47 48 48 45 41 41 40 39 38 39 38 37 36 35 35 34
40 52 51 44 37 28 42 35 10 14 17 14 32 26 43 8 26 33 31 29 32 31 35 40 39 37 43 44 47 48 48 48 48 45 43 41 40 40 38 37 37 36 35 33
14 16 36 39 49 36 32 44 16 12 4 6 25 12 34 47 44 39 41 36 36 36 34 34 37 37 42 44 47 48 46 46 47 47 45 44 43 41 39 38 37 37 34 33
8 11 10 24 30 41 23 38 41 11 3 3 9 17 31 37 36 30 31 33 36 39 39 39 43 41 43 43 46 46 45 45 43 44 46 46 45 42 39 37 37 35 34 33
14 18 13 15 12 26 39 32 18 9 12 13 6 9 15 27 32 35 37 43 43 37 37 41 41 44 45 47 49 48 47 45 43 40 42 43 42 40 39 37 35 34 33 33
28 11 9 17 24 28 27 31 24 20 10 3 2 8 30 39 25 25 33 36 34 31 35 39 39 42 43 41 43 47 47 45 42 41 41 40 40 38 35 34 34 33 33 33
17 11 7 5 13 26 30 33 35 14 6 10 11 13 28 26 34 35 26 24 33 28 23 27 31 31 36 38 40 44 45 43 40 37 37 36 35 34 32 32 31 31 31 32
19 10 8 4 4 10 22 30 32 30 12 20 4 12 22 27 30 23 18 14 15 16 16 16 22 23 29 34 36 40 40 36 35 35 33 33 32 31 29 30 31 31 31 32
11 13 10 7 11 8 8 9 20 31 16 20 21 36 33 31 26 17 14 17 20 20 16 16 18 22 27 31 33 33 33 33 33 32 31 30 30 29 28 29 29 31 33 33
19 12 15 16 14 9 10 11 10 12 27 14 19 27 26 31 32 28 26 19 14 9 15 18 18 20 25 25 29 30 31 31 31 30 28 27 26 27 29 31 32 34 33 33
17 12 22 17 9 7 9 9 12 12 15 20 21 23 26 29 38 22 16 17 15 12 13 13 14 19 23 25 25 26 26 27 27 26 26 25 25 26 29 31 30 31 31 32
22 10 14 5 11 9 4 12 7 2 4 3 4 8 9 12 11 14 16 18 15 14 15 18 15 18 22 24 26 30 32 29 26 24 23 23 26 27 27 28 28 26 26 27
22 15 11 7 9 3 3 5 6 10 12 8 4 8 13 12 8 7 7 8 10 11 17 17 19 19 22 24 26 29 23 22 21 19 21 21 21 23 23 23 24 25 25 25
10 10 6 3 2 4 6 8 7 4 13 12 12 10 11 10 10 14 16 14 10 11 14 16 20 21 22 25 26 25 24 23 21 20 17 17 19 21 23 23 23 23 22 23
8 10 12 3 1 2 6 6 3 2 13 13 14 14 14 11 9 8 7 11 16 14 15 22 24 23 24 26 28 26 26 24 21 26 25 18 20 22 22 22 23 21 21 23
5 1 9 14 2 3 9 8 3 3 6 11 15 15 14 14 11 7 6 2 4 9 15 21 28 28 27 27 26 25 25 25 26 20 16 16 18 18 18 18 17 18 19 20
12 5 6 4 4 2 12 9 6 7 8 12 13 13 13 13 12 9 6 5 4 4 4 15 26 28 28 27 27 28 30 27 21 15 13 12 14 14 15 17 17 19 20 21
8 11 6 5 5 5 8 10 9 9 12 11 12 12 12 11 12 11 8 4 4 2 2 7 14 19 20 20 22 21 20 19 16 14 13 14 15 16 18 19 19 19 20 21
7 9 5 3 6 3 6 12 12 13 13 12 13 13 13 12 10 9 8 6 4 4 3 5 9 12 15 17 18 18 11 7 9 10 12 12 13 15 16 16 17 18 20 21
10 8 5 6 8 7 8 10 10 11 12 13 13 13 13 12 11 10 8 7 7 6 5 6 8 12 14 11 6 5 7 8 9 9 10 12 12 12 13 14 15 15 16 16
7 8 8 8 10 10 10 11 11 12 11 8 7 9 12 13 12 11 10 9 7 7 8 8 6 4 3 5 8 10 11 10 10 10 10 10 11 12 12 13 14 14 14 15

GFSCGP_700_spd_339.txt.gz
Wind_Speed
35 41 50 50 55 54 49 38 43 40 34 30 39 51 44 44 46 50 51 49 48 48 46 47 46 42 43 45 43 41 40 38 39 38 37 37 35 34 33 33 33 33 33 31
43 50 55 54 52 53 51 45 47 40 40 34 42 53 45 41 40 38 40 45 47 45 40 43 46 46 45 44 45 45 41 39 38 38 37 38 35 35 33 34 36 37 34 32
43 56 40 54 58 49 52 49 50 45 30 33 40 53 50 50 49 50 49 50 47 44 41 34 40 44 45 47 46 45 43 40 39 38 37 38 38 39 39 39 38 35 32 32
27 54 57 42 40 56 54 60 53 46 35 38 32 22 42 47 52 50 50 49 50 48 44 44 42 41 45 43 41 40 40 38 37 37 36 37 36 37 35 33 32 32 33 35
36 34 53 53 55 46 57 56 54 50 40 37 27 23 35 38 39 43 50 50 50 44 43 44 44 42 41 39 40 37 37 37 36 35 36 36 37 37 35 35 36 37 37 37
36 33 38 36 38 39 46 46 39 40 40 26 40 35 46 34 39 46 50 49 48 47 40 43 44 41 40 41 41 41 40 39 37 37 38 37 38 37 37 38 39 38 37 36
24 25 41 50 34 30 28 34 10 13 15 16 38 30 43 10 27 44 50 50 42 40 37 41 41 43 44 48 50 49 47 45 46 45 44 42 40 40 40 39 39 39 38 36
8 10 9 29 50 34 24 29 14 10 4 12 22 12 31 41 37 27 16 22 28 29 30 33 40 44 47 50 50 52 56 55 51 49 47 45 43 43 42 41 41 40 38 38
9 12 28 16 20 38 34 30 23 10 2 4 8 16 35 38 29 28 33 36 35 34 35 35 36 37 38 45 49 47 50 53 51 48 45 44 44 44 44 43 43 42 41 41
18 17 12 4 12 16 25 23 13 24 5 9 3 5 15 27 35 35 33 30 29 32 32 32 34 37 42 43 42 44 43 47 44 43 44 44 42 42 44 44 43 42 41 40
20 9 18 13 16 24 33 22 17 8 6 2 1 6 21 26 26 23 24 24 23 31 36 40 34 38 42 42 39 42 44 46 42 43 46 45 43 41 42 44 42 42 40 39
16 9 13 24 15 21 24 27 30 7 4 7 9 15 20 24 22 22 31 30 33 30 29 31 33 32 35 39 36 37 46 46 42 44 44 43 42 43 42 41 41 40 38 36
15 6 9 9 4 7 22 21 17 30 9 18 5 9 9 14 16 17 21 24 23 18 13 12 16 18 24 28 32 39 40 40 41 42 42 41 41 41 41 39 37 35 35 34
18 16 10 10 18 18 2 4 5 26 15 12 17 28 16 16 20 25 24 20 17 17 17 21 17 13 13 18 23 28 32 34 37 38 38 38 39 37 36 34 34 33 31 29
16 13 17 21 17 8 8 7 6 4 8 8 8 11 15 19 18 14 18 22 25 24 19 19 23 14 10 11 17 22 26 30 33 35 34 33 34 31 29 28 31 32 31 32
19 13 16 23 11 7 8 11 6 3 6 7 11 11 12 15 18 20 20 16 16 19 19 17 18 20 19 19 19 24 26 28 29 30 31 32 31 29 29 29 27 29 31 33
18 8 14 6 14 4 4 18 16 17 14 9 12 13 12 8 10 11 12 13 19 16 14 13 10 12 19 26 26 25 26 26 27 29 27 27 31 31 30 27 27 30 32 32
18 14 8 9 11 4 3 6 6 15 16 15 13 13 14 10 10 11 8 7 9 12 16 15 14 14 18 23 25 26 28 30 29 29 29 30 27 25 22 23 28 28 28 28
11 9 5 4 4 8 6 12 9 4 14 16 15 15 16 12 8 7 10 14 14 11 11 14 17 16 19 21 24 24 25 25 28 28 28 28 23 17 21 24 25 26 25 25
3 6 7 4 2 1 14 9 4 1 10 16 16 17 19 16 10 10 9 8 9 14 13 13 16 17 20 20 20 23 22 25 27 28 24 21 22 24 22 23 23 23 24 24
4 3 5 9 2 3 11 9 6 3 7 15 16 17 17 19 18 17 14 9 8 7 9 14 16 19 20 20 23 26 26 24 23 21 20 19 24 29 30 29 26 23 22 22
13 5 6 4 4 3 12 13 7 7 8 11 13 14 15 15 15 15 14 11 10 8 7 6 13 16 18 20 22 22 22 23 23 24 24 25 22 21 20 19 19 18 19 21
9 12 6 6 6 6 11 12 10 10 11 11 11 11 13 14 14 14 13 12 10 8 7 4 6 13 16 18 20 21 22 22 23 25 26 20 15 14 16 20 20 19 21 23
7 8 5 3 6 5 6 10 11 11 12 13 13 13 13 14 14 13 13 12 10 9 7 5 4 8 12 15 18 20 21 22 22 19 11 10 12 13 14 15 16 17 18 20
10 8 5 5 9 9 9 11 11 11 13 14 13 11 11 13 14 13 12 12 11 9 8 7 7 8 11 13 15 17 18 17 14 14 16 16 13 12 14 14 14 15 16 16
9 10 9 8 11 11 11 11 11 11 12 11 10 13 16 18 17 15 13 12 11 11 10 8 8 8 10 13 14 13 12 11 11 12 12 11 12 14 14 14 14 13 13 13

GFSCGP_700_spd_342.txt.gz
Wind_Speed
26 39 48 50 54 53 47 42 42 37 40 35 42 57 50 48 48 51 49 47 43 48 50 49 50 48 49 49 45 41 38 38 40 40 40 40 38 37 37 35 35 33 33 34
24 32 53 50 45 42 53 49 46 45 30 33 38 48 40 38 40 41 41 44 45 49 44 44 47 50 52 51 50 47 45 45 44 44 42 42 38 38 37 36 35 35 36 35
33 29 24 31 55 55 41 52 56 43 33 37 37 49 47 47 46 46 45 44 42 44 46 49 47 47 48 50 51 48 45 47 47 46 45 43 41 41 41 39 39 39 38 36
26 25 26 29 46 47 49 47 49 49 38 37 32 18 33 39 48 52 52 53 53 49 41 38 38 40 43 47 49 51 50 49 49 50 47 45 42 41 38 37 36 37 37 36
31 31 34 34 38 51 46 48 40 38 38 35 27 18 34 35 41 45 51 51 51 51 50 49 46 44 40 41 39 47 52 52 50 49 47 45 42 38 35 37 38 38 37 38
31 26 34 37 33 32 60 46 36 41 41 24 38 35 44 35 38 41 44 46 49 48 49 47 44 43 44 41 47 43 45 47 47 47 45 44 39 36 34 36 38 38 38 39
22 20 19 25 30 26 33 34 11 17 18 19 41 31 42 16 32 39 40 42 41 43 43 42 42 42 44 49 44 46 45 41 42 43 42 40 39 35 34 36 37 38 38 39
11 12 15 14 33 17 43 25 5 7 5 12 22 10 30 46 42 35 32 29 27 30 43 43 38 39 41 45 49 48 46 42 41 42 42 41 40 36 36 38 38 39 40 40
9 10 30 24 23 29 29 20 13 10 3 2 7 12 31 36 35 35 39 34 31 30 26 27 29 31 31 42 46 50 55 53 51 49 47 46 43 40 39 39 39 40 42 42
21 26 16 26 10 13 28 22 9 10 2 4 3 4 16 26 29 32 33 35 29 27 32 32 31 34 36 37 39 44 50 53 56 59 56 54 48 43 41 41 40 40 42 44
30 9 20 28 7 12 26 18 16 12 8 3 2 5 17 21 11 8 16 23 25 23 21 20 21 28 32 34 34 37 44 49 47 50 52 50 46 44 45 44 42 41 42 43
21 14 18 34 13 6 26 19 22 9 3 4 3 7 14 10 14 15 17 18 27 30 29 27 28 27 30 36 35 38 39 46 48 47 46 44 42 45 47 45 42 42 43 44
19 15 17 18 9 22 5 24 28 14 5 10 6 3 3 5 10 12 13 12 14 15 20 22 18 18 21 29 34 34 38 44 44 46 42 43 47 50 50 47 44 43 43 44
16 13 16 12 24 31 13 6 17 18 11 8 21 6 8 6 7 10 12 14 15 17 13 15 17 19 16 15 20 26 30 37 37 35 41 41 41 43 44 43 43 41 39 39
18 16 17 23 19 7 13 12 8 10 3 6 3 2 4 10 11 13 17 20 22 22 24 25 23 21 17 12 10 13 19 24 29 30 32 36 39 41 42 39 38 38 37 36
25 14 20 26 5 18 27 20 14 13 12 12 11 8 12 9 10 12 13 16 18 16 18 19 22 21 17 18 16 11 10 16 19 24 27 31 34 36 39 41 37 35 34 36
27 11 13 7 17 9 7 19 25 24 23 19 21 17 15 10 8 7 8 10 14 17 19 16 23 24 17 20 27 19 19 21 27 29 31 34 35 36 34 31 30 31 33 36
16 11 8 10 17 5 3 13 8 21 21 19 18 17 16 14 8 7 9 11 11 10 12 15 18 20 22 25 23 23 25 24 26 30 32 33 33 34 34 33 32 29 28 27
8 11 4 4 4 3 10 13 7 6 20 19 17 16 17 13 12 12 12 12 12 15 14 11 13 17 21 22 19 18 20 21 24 26 26 28 29 27 24 28 30 29 23 20
3 9 5 6 4 1 12 10 2 3 13 15 17 18 18 17 13 16 14 12 10 10 10 13 13 13 16 19 18 19 19 18 18 21 23 22 23 26 29 28 23 24 28 28
7 3 5 7 2 3 8 10 3 2 7 14 15 16 17 19 18 18 17 14 13 10 9 8 11 13 13 16 18 17 18 17 18 22 24 24 24 26 27 26 26 28 27 25
12 6 6 4 3 1 14 12 6 7 9 12 14 15 15 15 15 16 15 15 14 12 11 8 6 9 11 13 14 16 20 19 19 21 21 20 21 22 23 25 27 27 27 29
8 11 6 4 3 3 9 12 10 9 10 11 12 12 14 16 16 16 15 15 14 13 11 9 6 5 7 11 14 16 18 19 20 20 21 22 23 24 26 24 22 20 19 19
7 6 2 3 7 9 7 12 12 11 12 13 12 11 12 13 15 17 16 14 13 13 12 10 8 5 6 9 13 16 18 19 21 23 23 23 25 26 24 21 21 21 21 21
7 6 3 4 9 8 9 11 12 12 12 13 13 12 14 16 18 16 15 16 14 12 11 11 10 8 7 9 11 14 16 18 20 22 23 24 24 22 21 19 18 19 19 19
8 7 6 5 9 10 10 11 11 11 11 11 11 13 15 15 15 15 14 13 13 14 14 11 10 10 8 9 11 12 13 15 17 17 18 17 17 17 17 15 13 14 15 15

GFSCGP_700_spd_345.txt.gz
Wind_Speed
14 24 31 37 45 40 40 37 43 39 38 40 42 45 48 45 46 49 46 43 42 40 47 50 46 46 46 47 45 42 37 36 35 35 36 40 39 39 39 37 36 35 34 33
28 35 26 26 24 35 47 43 43 46 40 35 39 46 44 42 47 48 45 46 46 45 43 42 44 50 51 49 49 48 44 42 40 39 36 37 38 40 40 37 36 35 35 36
35 42 31 29 28 28 44 54 48 33 33 39 41 45 43 40 38 41 41 43 44 46 45 46 45 40 48 50 52 52 50 49 46 43 43 43 42 44 44 43 41 40 39 38
38 31 30 28 35 31 36 44 58 50 31 40 38 18 31 36 41 44 47 46 44 43 40 41 46 48 43 48 45 44 47 50 49 49 50 50 48 47 46 43 40 39 39 38
42 36 32 31 33 26 35 30 37 43 36 27 26 20 28 34 38 41 46 44 48 50 48 47 42 39 41 46 45 43 44 49 49 50 50 50 52 50 46 44 41 40 40 39
36 28 32 34 31 36 33 24 29 28 27 20 33 33 29 31 32 32 37 41 42 43 43 45 45 48 44 41 41 43 45 44 48 52 53 52 52 53 48 45 43 41 41 42
20 23 21 16 23 29 29 19 3 7 12 18 39 24 25 16 31 36 42 41 32 31 33 34 38 42 45 45 44 47 48 48 46 45 50 51 50 51 48 46 42 41 40 41
9 11 11 11 21 22 23 35 10 8 7 11 36 15 51 57 54 47 38 30 23 19 22 26 32 36 35 39 43 47 54 50 50 47 43 43 45 47 46 45 42 39 38 37
20 20 36 29 22 26 13 30 36 12 5 1 5 18 39 36 30 31 31 33 33 29 29 23 22 34 43 40 43 47 51 60 53 48 48 43 41 43 43 42 40 39 37 37
32 24 15 25 30 3 26 21 13 10 5 6 0 4 4 20 32 31 30 28 30 32 35 35 32 21 25 32 38 43 47 50 59 54 52 50 42 41 42 41 40 39 38 38
33 11 23 35 18 17 18 21 17 16 5 3 3 2 8 4 6 13 22 25 29 26 28 28 24 25 26 31 33 37 40 45 50 58 57 54 57 51 45 42 39 41 41 41
20 15 25 35 9 16 13 14 23 14 4 3 5 1 5 1 6 7 5 8 13 16 19 20 20 22 22 23 28 33 37 40 43 48 55 56 55 59 58 54 47 46 45 44
22 10 17 19 12 22 28 11 15 11 10 11 5 4 8 4 3 5 12 12 11 13 14 17 18 19 20 23 24 30 37 39 38 43 47 51 56 55 56 63 61 55 53 51
14 14 18 13 26 33 18 12 17 11 6 12 2 9 6 6 5 3 4 7 10 12 13 12 13 14 16 18 17 21 28 36 37 39 44 47 48 49 46 51 53 54 52 51
13 22 18 24 17 9 21 22 11 10 5 4 6 8 3 5 10 13 16 18 18 20 21 20 21 21 19 21 18 17 18 24 30 34 39 42 43 44 44 47 50 50 46 44
26 13 26 19 4 10 25 32 23 26 22 20 13 19 12 6 5 8 10 13 16 20 23 18 17 18 20 19 19 17 16 18 23 27 32 34 36 40 43 44 44 45 43 42
16 9 9 6 7 7 8 17 28 27 24 22 23 18 15 10 3 6 8 9 10 11 14 17 19 18 20 20 21 21 22 17 17 21 24 28 32 35 37 38 38 39 40 40
11 8 7 9 15 5 2 12 7 21 23 21 18 18 16 15 13 12 11 9 10 12 12 11 13 17 16 19 21 21 19 22 20 20 20 24 29 32 35 37 37 38 39 40
6 10 5 5 4 3 11 16 6 8 19 19 18 17 16 14 13 16 15 14 11 11 10 12 11 10 12 15 16 18 16 19 19 22 21 25 28 32 34 37 38 39 38 37
12 2 5 7 3 2 14 13 5 2 13 17 16 16 14 12 11 15 14 15 14 14 12 10 8 8 10 12 15 14 16 18 18 16 18 21 24 26 28 29 30 28 28 31
12 5 5 9 1 4 13 14 6 4 8 14 14 15 14 15 15 14 14 14 15 13 13 12 9 7 8 9 11 13 14 14 13 13 13 16 19 21 23 24 24 26 28 31
9 7 5 4 2 2 12 10 7 7 9 12 12 11 12 13 14 14 13 13 12 13 13 12 11 9 7 7 7 9 10 11 11 11 14 16 17 20 22 24 27 32 30 28
7 6 4 4 4 10 8 10 10 8 8 9 10 11 12 14 14 15 15 14 12 11 11 11 11 9 7 6 7 8 9 10 11 12 14 16 17 18 20 22 23 25 25 27
13 8 5 5 7 8 6 9 10 10 9 10 11 11 13 14 15 14 15 14 14 12 11 11 10 9 8 6 8 10 12 13 14 15 15 16 16 16 17 19 22 25 26 25
11 8 7 6 7 8 7 9 9 9 9 10 10 11 12 13 14 14 14 15 15 14 12 11 9 9 8 7 6 9 11 14 16 18 20 21 21 21 21 22 23 22 21 21
8 9 8 6 8 8 7 7 7 7 8 9 10 11 12 12 14 15 16 16 16 16 16 14 12 10 9 8 7 7 9 11 14 17 18 20 22 22 21 19 18 16 16 14